Millville, NJ

12:15 PM EST on January 20, 2017 (GMT -0500)
Millville Municipal

Weather History for KMIV - October, 2012

Change the Weather History Date:

Friday, October 12, 2012

  Actual Average Record
Temperature  
Mean Temperature 50 °F -  
Max Temperature 64 °F 66 °F 86 °F (1954)
Min Temperature 37 °F 46 °F 30 °F (1964)
Degree Days  
Heating Degree Days 14    
Moisture  
Dew Point 37 °F    
Average Humidity 69    
Maximum Humidity 97    
Minimum Humidity 39    
Precipitation  
Precipitation 0.00 in - - ()
Sea Level Pressure  
Sea Level Pressure 30.21 in    
Wind  
Wind Speed 10 mph (NW)    
Max Wind Speed 17 mph    
Max Gust Speed 31 mph    
Visibility 10 miles    
Events      
Averages and records for this station are not official NWS values.
T = Trace of Precipitation, MM = Missing Value Source: NWS Daily Summary

Daily Weather History Graph

Daily Weather History Graph

Search for Another Location

Airport or City:

Trip Planner

Search our weather history database for the weather conditions in past years. The results will help you decide how hot, cold, wet, or windy it might be!

Date:

Astronomy

Oct. 12, 2012 Rise Set
Actual Time 7:07 AM EDT 6:25 PM EDT
Civil Twilight 6:40 AM EDT 6:51 PM EDT
Nautical Twilight 6:09 AM EDT 7:23 PM EDT
Astronomical Twilight 5:38 AM EDT 7:54 PM EDT
Moon 3:48 AM EDT (10/12) 4:32 PM EDT (10/12)
Length of Visible Light 12h 11m
Length of Day
11h 17m
Waning Crescent, 11% of the Moon is Illuminated
Oct 12
Waning Crescent
Oct 15
New
Oct 21
First Quarter
Oct 29
Full
Nov 6
Last Quarter

Hourly Weather History & Observations

Time (EDT) Temp. Windchill Dew Point Humidity Pressure Visibility Wind Dir Wind Speed Gust Speed Precip Events Conditions
12:54 AM 39.0 °F 32.8 °F 37.0 °F 93% 30.18 in 10.0 mi West 9.2 mph 21.9 mph N/A   Clear
1:54 AM 39.0 °F 32.3 °F 37.0 °F 93% 30.17 in 10.0 mi West 10.4 mph 20.7 mph N/A   Clear
2:54 AM 37.9 °F 32.1 °F 36.0 °F 93% 30.16 in 10.0 mi West 8.1 mph - N/A   Clear
3:54 AM 39.0 °F - 37.9 °F 96% 30.14 in 9.0 mi Calm Calm - N/A   Clear
4:54 AM 39.0 °F 33.4 °F 37.0 °F 93% 30.13 in 8.0 mi West 8.1 mph - N/A   Clear
5:54 AM 42.1 °F 35.2 °F 41.0 °F 96% 30.13 in 10.0 mi West 12.7 mph - N/A   Clear
6:54 AM 41.0 °F 34.3 °F 39.9 °F 96% 30.14 in 8.0 mi West 11.5 mph - N/A   Clear
7:54 AM 43.0 °F 37.2 °F 42.1 °F 97% 30.14 in 5.0 mi West 10.4 mph 24.2 mph N/A   Clear
8:54 AM 52.0 °F - 48.0 °F 86% 30.15 in 10.0 mi West 17.3 mph 26.5 mph N/A   Clear
10:54 AM 61.0 °F - 37.9 °F 42% 30.16 in 10.0 mi WNW 12.7 mph 31.1 mph N/A   Clear
12:54 PM 64.9 °F - 39.0 °F 39% 30.15 in 10.0 mi North 13.8 mph 19.6 mph N/A   Mostly Cloudy
1:54 PM 64.0 °F - 39.0 °F 40% 30.15 in 10.0 mi NNW 15.0 mph 23.0 mph N/A   Partly Cloudy
2:54 PM 63.0 °F - 39.0 °F 41% 30.16 in 10.0 mi NW 16.1 mph 26.5 mph N/A   Partly Cloudy
3:54 PM 59.0 °F - 37.0 °F 44% 30.19 in 10.0 mi NNW 13.8 mph 19.6 mph N/A   Clear
4:54 PM 57.0 °F - 34.0 °F 42% 30.23 in 10.0 mi NNW 16.1 mph 23.0 mph N/A   Partly Cloudy
6:54 PM 52.0 °F - 32.0 °F 47% 30.29 in 10.0 mi NW 4.6 mph - N/A   Clear
7:54 PM 48.0 °F - 32.0 °F 54% 30.32 in 10.0 mi NNW 5.8 mph - N/A   Clear
8:54 PM 45.0 °F 43.5 °F 32.0 °F 60% 30.35 in 10.0 mi North 3.5 mph - N/A   Clear
10:54 PM 43.0 °F 41.3 °F 28.9 °F 58% 30.41 in 10.0 mi NNW 3.5 mph - N/A   Clear
11:54 PM 39.0 °F 36.8 °F 30.0 °F 70% 30.43 in 10.0 mi North 3.5 mph - N/A   Clear